TimeCDT,TemperatureF,Dew PointF,Humidity,Sea Level PressureIn,VisibilityMPH,Wind Direction,Wind SpeedMPH,Gust SpeedMPH,PrecipitationIn,Events,Conditions,WindDirDegrees,DateUTC
12:12 AM,50.5,48.7,94,29.71,2.5,NE,9.2,-,N/A,,Light Drizzle,40,2012-10-14 05:12:00
12:32 AM,50.5,48.7,94,29.70,3.0,NE,8.1,-,N/A,,Overcast,40,2012-10-14 05:32:00
12:52 AM,50.4,48.6,94,29.70,3.0,NNE,9.2,-,N/A,,Overcast,20,2012-10-14 05:52:00
1:12 AM,50.4,48.6,94,29.70,7.0,NNE,9.2,-,N/A,,Overcast,20,2012-10-14 06:12:00
1:32 AM,50.0,48.2,94,29.71,7.0,NNE,10.4,-,N/A,,Overcast,30,2012-10-14 06:32:00
1:52 AM,50.0,48.0,93,29.70,7.0,NNE,8.1,-,N/A,,Overcast,30,2012-10-14 06:52:00
2:12 AM,50.0,47.7,92,29.70,7.0,North,10.4,-,N/A,,Overcast,10,2012-10-14 07:12:00
2:32 AM,50.0,47.5,91,29.71,7.0,NNE,9.2,-,N/A,,Overcast,20,2012-10-14 07:32:00
2:52 AM,49.6,47.3,92,29.72,7.0,NNE,10.4,-,N/A,,Overcast,20,2012-10-14 07:52:00
3:12 AM,49.6,47.1,91,29.71,7.0,NNE,9.2,-,N/A,,Overcast,20,2012-10-14 08:12:00
3:32 AM,49.3,46.9,92,29.70,5.0,North,9.2,-,N/A,,Overcast,360,2012-10-14 08:32:00
3:53 AM,49.1,46.8,92,29.70,4.0,North,11.5,-,N/A,,Overcast,360,2012-10-14 08:53:00
4:12 AM,49.1,46.8,92,29.70,5.0,North,9.2,-,N/A,,Overcast,360,2012-10-14 09:12:00
4:32 AM,49.1,46.8,92,29.70,5.0,North,9.2,-,N/A,,Overcast,360,2012-10-14 09:32:00
4:53 AM,49.1,46.6,91,29.70,7.0,North,10.4,-,N/A,,Overcast,10,2012-10-14 09:53:00
5:12 AM,48.9,46.4,91,29.69,7.0,North,10.4,-,N/A,,Overcast,360,2012-10-14 10:12:00
5:32 AM,48.9,46.2,90,29.70,10.0,North,9.2,-,N/A,,Overcast,10,2012-10-14 10:32:00
5:51 AM,48.7,45.9,90,29.69,10.0,North,12.7,-,N/A,,Overcast,360,2012-10-14 10:51:00
6:12 AM,48.6,45.5,89,29.69,10.0,North,11.5,-,N/A,,Overcast,360,2012-10-14 11:12:00
6:32 AM,48.6,45.5,89,29.68,10.0,North,11.5,-,N/A,,Overcast,360,2012-10-14 11:32:00
6:52 AM,48.4,45.0,88,29.68,10.0,North,16.1,19.6,N/A,,Overcast,10,2012-10-14 11:52:00
7:12 AM,48.4,44.8,87,29.69,10.0,North,10.4,-,N/A,,Overcast,360,2012-10-14 12:12:00
7:32 AM,48.2,44.8,88,29.70,10.0,North,11.5,-,N/A,,Overcast,10,2012-10-14 12:32:00
7:52 AM,48.2,44.8,88,29.70,10.0,North,12.7,16.1,N/A,,Overcast,350,2012-10-14 12:52:00
8:12 AM,48.2,44.8,88,29.71,10.0,North,13.8,-,N/A,,Overcast,360,2012-10-14 13:12:00
8:32 AM,48.4,44.6,87,29.71,10.0,North,13.8,19.6,N/A,,Overcast,360,2012-10-14 13:32:00
8:52 AM,48.4,44.6,87,29.72,10.0,North,13.8,-,N/A,,Overcast,360,2012-10-14 13:52:00
9:12 AM,48.2,44.6,87,29.72,7.0,North,13.8,19.6,N/A,,Overcast,350,2012-10-14 14:12:00
9:32 AM,47.7,44.1,87,29.72,7.0,North,16.1,23.0,N/A,,Overcast,360,2012-10-14 14:32:00
9:52 AM,47.7,43.9,87,29.72,7.0,North,17.3,24.2,N/A,,Overcast,350,2012-10-14 14:52:00
10:12 AM,46.9,43.3,87,29.73,7.0,North,15.0,21.9,N/A,,Overcast,350,2012-10-14 15:12:00
10:32 AM,46.6,43.0,87,29.72,10.0,North,13.8,-,N/A,,Overcast,360,2012-10-14 15:32:00
10:52 AM,46.9,42.8,86,29.73,10.0,North,13.8,-,N/A,,Overcast,360,2012-10-14 15:52:00
11:12 AM,47.3,43.0,85,29.73,10.0,North,12.7,-,N/A,,Overcast,350,2012-10-14 16:12:00
11:32 AM,47.5,42.4,83,29.73,10.0,North,13.8,19.6,N/A,,Overcast,360,2012-10-14 16:32:00
11:51 AM,47.3,42.8,84,29.74,7.0,North,15.0,-,N/A,,Overcast,350,2012-10-14 16:51:00
12:12 PM,48.4,43.0,82,29.74,10.0,NNW,18.4,-,N/A,,Overcast,330,2012-10-14 17:12:00
12:33 PM,48.6,42.4,79,29.74,10.0,North,17.3,23.0,N/A,,Overcast,350,2012-10-14 17:33:00
12:52 PM,49.3,42.1,76,29.74,10.0,NNW,15.0,24.2,N/A,,Overcast,340,2012-10-14 17:52:00
1:12 PM,51.4,41.4,68,29.74,10.0,North,19.6,26.5,N/A,,Mostly Cloudy,360,2012-10-14 18:12:00
1:33 PM,52.9,41.7,66,29.75,10.0,NNW,15.0,-,N/A,,Scattered Clouds,340,2012-10-14 18:33:00
1:52 PM,53.8,40.1,60,29.74,10.0,NNW,18.4,23.0,N/A,,Scattered Clouds,340,2012-10-14 18:52:00
2:12 PM,55.2,39.2,55,29.74,10.0,North,17.3,23.0,N/A,,Clear,350,2012-10-14 19:12:00
2:33 PM,56.5,38.5,51,29.73,10.0,NNW,18.4,-,N/A,,Clear,340,2012-10-14 19:33:00
3:12 PM,57.7,36.0,44,29.74,10.0,NNW,15.0,25.3,N/A,,Clear,330,2012-10-14 20:12:00
3:33 PM,58.1,34.3,41,29.75,10.0,NNW,17.3,-,N/A,,Clear,340,2012-10-14 20:33:00
3:52 PM,58.1,34.2,41,29.75,10.0,NNW,16.1,21.9,N/A,,Clear,330,2012-10-14 20:52:00
4:12 PM,58.3,32.9,38,29.76,10.0,NNW,15.0,26.5,N/A,,Clear,330,2012-10-14 21:12:00
4:32 PM,58.3,31.6,36,29.76,10.0,NNW,19.6,-,N/A,,Clear,330,2012-10-14 21:32:00
4:52 PM,57.9,30.9,36,29.77,10.0,NNW,15.0,-,N/A,,Clear,330,2012-10-14 21:52:00
5:12 PM,57.4,30.2,36,29.78,10.0,NNW,15.0,-,N/A,,Clear,330,2012-10-14 22:12:00
5:32 PM,56.8,29.5,35,29.78,10.0,NNW,11.5,19.6,N/A,,Clear,340,2012-10-14 22:32:00
5:52 PM,55.6,30.0,38,29.79,10.0,North,10.4,-,N/A,,Clear,350,2012-10-14 22:52:00
6:12 PM,53.6,30.9,42,29.80,10.0,NNW,8.1,-,N/A,,Clear,340,2012-10-14 23:12:00
6:32 PM,50.9,32.2,49,29.81,10.0,NW,6.9,-,N/A,,Clear,310,2012-10-14 23:32:00
6:52 PM,50.4,33.1,52,29.81,10.0,NW,9.2,-,N/A,,Clear,320,2012-10-14 23:52:00
7:12 PM,49.5,32.9,53,29.81,10.0,NW,6.9,-,N/A,,Clear,310,2012-10-15 00:12:00
7:32 PM,48.2,32.9,55,29.82,10.0,WNW,6.9,-,N/A,,Scattered Clouds,300,2012-10-15 00:32:00
7:52 PM,49.6,34.0,55,29.82,10.0,WNW,5.8,-,N/A,,Mostly Cloudy,300,2012-10-15 00:52:00
8:12 PM,50.2,34.2,54,29.83,10.0,WNW,5.8,-,N/A,,Overcast,290,2012-10-15 01:12:00
8:32 PM,49.5,34.2,56,29.83,10.0,WNW,5.8,-,N/A,,Overcast,290,2012-10-15 01:32:00
8:52 PM,48.9,33.8,56,29.83,10.0,WNW,6.9,-,N/A,,Overcast,290,2012-10-15 01:52:00
9:12 PM,50.0,34.2,55,29.84,10.0,West,6.9,-,N/A,,Overcast,280,2012-10-15 02:12:00
9:32 PM,50.2,34.7,55,29.84,10.0,West,5.8,-,N/A,,Overcast,280,2012-10-15 02:32:00
9:52 PM,50.7,34.7,54,29.84,10.0,West,5.8,-,N/A,,Overcast,280,2012-10-15 02:52:00
10:12 PM,50.0,34.9,56,29.84,10.0,West,5.8,-,N/A,,Overcast,280,2012-10-15 03:12:00
10:32 PM,49.1,33.8,56,29.85,10.0,West,5.8,-,N/A,,Mostly Cloudy,270,2012-10-15 03:32:00
10:52 PM,46.9,34.2,61,29.85,10.0,West,6.9,-,N/A,,Scattered Clouds,280,2012-10-15 03:52:00
11:12 PM,46.0,35.6,67,29.85,10.0,West,6.9,-,N/A,,Mostly Cloudy,280,2012-10-15 04:12:00
11:32 PM,46.4,36.5,68,29.86,10.0,West,5.8,-,N/A,,Mostly Cloudy,280,2012-10-15 04:32:00
11:52 PM,46.4,36.9,69,29.86,10.0,West,5.8,-,N/A,,Scattered Clouds,280,2012-10-15 04:52:00